Погода в Ираклионе

Греция     35°20′41″N   25°09′02″E
темп.,
°C
ветер,
м/с
пор.,
м/с
влажн.,
%
обл.,
%
осадки,
мм/ч
давл.,
гПа
погр.,
м
20 апреля, вт
вт2000:00+11с15735 0.0 1016182
03:00+10св04780 0.0 1016139
06:00+9вюв12770 0.0 101697
09:00+13ссз13620 0.0 1017396
12:00+16ссз45520 0.0 10171005
15:00+16ссз546410 0.0 1017880
18:00+14ссз466930 0.0 1017636
21:00+12с24795 0.0 1018176
21 апреля, ср
ср2100:00+11ююз01810 0.0 101951
03:00+10с01830 0.0 101982
06:00+9всв12776 0.0 101887
09:00+13с015698 0.0 1020343
12:00+16ссз32493 0.0 1020829
15:00+16ссз43610 0.0 1020796
18:00+14ссз466722 0.0 1020598
21:00+12ссв13765 0.0 1021100
22 апреля, чт
чт2200:00+11юв11692 0.0 102127
03:00+11вюв11471 0.0 102024
06:00+10вюв12495 0.0 102128
09:00+14с12445 0.0 1022244
12:00+17ссз32415 0.0 1022644
15:00+18с32440 0.0 1022784
18:00+17с22494 0.0 1021402
21:00+13ююз11655 0.0 102210
23 апреля, пт
пт2300:00+13ю225883 0.0 102130
03:00+14ю334664 0.0 101929
06:00+14вюв12444 0.0 101816
09:00+18в11404 0.0 1019137
12:00+22ю24375 0.0 1020697
15:00+22ю45385 0.0 1019622
18:00+21ююв234131 0.0 1017357
21:00+17ю334993 0.0 101824
24 апреля, сб
сб2400:00+16ююв22495 0.0 101815
03:00+15ю3344100 0.0 101627
06:00+15юв014773 0.0 101611
09:00+17ссз2255100 0.0 1016183
12:00+22ю034299 0.0 1016569
15:00+23ююв2539100 0.0 1012603
18:00+21ююз2448100 0.0 1012261
21:00+17ю1252100 0.0 101123